Flag for Germany Weather past 2 weeks in Wiesbaden, Hesse, Germany

Now
70 °F

Passing clouds.


Feels Like: 70 °F
Forecast: 59 / 72 °F
Wind: 5 mph from Northwest

Location: Wiesbaden Airport

Current Time: Aug 27, 2015 at 10:32:01 PM

Latest Report: Aug 27, 2015 at 9:58 PM


Visibility: N/A

Pressure: 29.83 "Hg

Humidity: 78%

Dew point: 63 °F

Location of WiesbadenLocation

Historic Weather in Wiesbaden — Graph

°F

Wiesbaden temperature yesterday

Maximum temperature yesterday: 81 °F (at 4:58 PM)
Minimum temperature yesterday: 55 °F (at 5:58 AM)
Average temperature yesterday: 68 °F

Past Weeks' High & Low Weather Summary

 TemperatureHumidityPressure
High94 °F (Aug 13, 5:58 PM)100% (Aug 15, 3:58 AM)30.29 "Hg (Aug 15, 3:58 AM)
Low51 °F (Aug 19, 5:58 AM)24% (Aug 22, 4:58 PM)29.66 "Hg (Aug 23, 6:58 PM)
Average68 °F68%29.96 "Hg
* Reported Aug 12 8:58 PM — Aug 27 8:58 PM, Wiesbaden, Weather by CustomWeather, © 2015

Note: Actual official high and low records may vary slightly from our data, if they occured in-between our weather recording intervals... More about our weather records

Advertising

Wiesbaden weather history for previous 24 hours

 ConditionsComfort  
Time TempWeatherWind HumidityBarometerVisibility
8:58 PM
Thu, Aug 27
70 °FLight rain. Scattered clouds.7 mph78%29.83 "HgN/A
7:58 PM72 °FLight rain. Overcast.9 mph78%29.84 "HgN/A
6:58 PM80 °FBroken clouds.3 mph51%29.78 "HgN/A
5:58 PM81 °FBroken clouds.5 mph51%29.78 "HgN/A
4:58 PM81 °FScattered clouds.5 mph51%29.79 "HgN/A
3:58 PM80 °FPassing clouds.7 mph51%29.80 "HgN/A
2:58 PM81 °FBroken clouds.2 mph48%29.82 "HgN/A
1:58 PM77 °FScattered clouds.5 mph53%29.85 "HgN/A
12:58 PM75 °FPartly sunny.5 mph55%29.88 "HgN/A
11:58 AM71 °FOvercast.1 mph65%29.90 "HgN/A
10:58 AM69 °FPartly sunny.No wind71%29.91 "HgN/A
9:58 AM70 °FBroken clouds.3 mph69%29.91 "HgN/A
8:58 AM68 °FScattered clouds.2 mph69%29.89 "HgN/A
7:58 AM63 °FScattered clouds.1 mph83%29.90 "HgN/A
6:58 AM61 °FPassing clouds.No wind83%29.88 "HgN/A
5:58 AM60 °FPassing clouds.2 mph86%29.89 "HgN/A
4:58 AM60 °FClear.3 mph86%29.87 "HgN/A
3:58 AM61 °FPassing clouds.3 mph83%29.86 "HgN/A
2:58 AM63 °FPassing clouds.2 mph76%29.86 "HgN/A
1:58 AM61 °FClear.2 mph80%29.87 "HgN/A
12:58 AM63 °FClear.No wind76%29.87 "HgN/A
11:58 PM
Wed, Aug 26
66 °FClear.2 mph64%29.88 "HgN/A
10:58 PM68 °FClear.5 mph67%29.88 "HgN/A
Weather by CustomWeather, © 2015

See weather overviewHow to use our weather pages